Time,TemperatureF,DewpointF,PressureIn,WindDirection,WindDirectionDegrees,WindSpeedMPH,WindSpeedGustMPH,Humidity,HourlyPrecipIn,Conditions,Clouds,dailyrainin,SoftwareType,DateUTC
2014-11-23 00:07:00,46.3,44.0,29.91,South,190,0.0,-999.0,92,-99.99,,,0.00,weatherlink.com 1.10,2014-11-23 05:07:00,
2014-11-23 00:22:00,45.9,44.0,29.91,South,189,0.0,-999.0,93,-99.99,,,0.00,weatherlink.com 1.10,2014-11-23 05:22:00,
2014-11-23 00:37:00,45.7,44.0,29.91,South,184,0.0,-999.0,94,-99.99,,,0.00,weatherlink.com 1.10,2014-11-23 05:37:00,
2014-11-23 00:52:00,45.5,44.0,29.91,South,182,0.0,-999.0,94,-99.99,,,0.00,weatherlink.com 1.10,2014-11-23 05:52:00,
2014-11-23 01:07:00,45.6,44.0,29.91,SSE,164,0.0,-999.0,93,-99.99,,,0.00,weatherlink.com 1.10,2014-11-23 06:07:00,
2014-11-23 01:22:00,45.4,44.0,29.90,South,176,4.0,-999.0,93,-99.99,,,0.00,weatherlink.com 1.10,2014-11-23 06:22:00,
2014-11-23 01:37:00,45.4,44.0,29.91,South,178,2.0,-999.0,93,-99.99,,,0.00,weatherlink.com 1.10,2014-11-23 06:37:00,
2014-11-23 01:53:00,45.8,44.0,29.90,SSW,193,0.0,-999.0,93,-99.99,,,0.00,weatherlink.com 1.10,2014-11-23 06:53:00,
2014-11-23 02:08:00,45.8,44.0,29.90,SSW,193,0.0,-999.0,92,-99.99,,,0.01,weatherlink.com 1.10,2014-11-23 07:08:00,
2014-11-23 02:23:00,45.9,44.0,29.90,SSW,194,0.0,-999.0,92,-99.99,,,0.01,weatherlink.com 1.10,2014-11-23 07:23:00,
2014-11-23 02:38:00,45.8,44.0,29.91,SSW,193,2.0,-999.0,92,-99.99,,,0.01,weatherlink.com 1.10,2014-11-23 07:38:00,
2014-11-23 02:53:00,46.1,44.0,29.91,SSW,195,1.0,-999.0,92,-99.99,,,0.01,weatherlink.com 1.10,2014-11-23 07:53:00,
2014-11-23 03:08:00,46.5,44.0,29.91,SSW,200,2.0,-999.0,91,-99.99,,,0.01,weatherlink.com 1.10,2014-11-23 08:08:00,
2014-11-23 03:23:00,46.3,44.0,29.90,SSW,196,0.0,-999.0,91,-99.99,,,0.01,weatherlink.com 1.10,2014-11-23 08:23:00,
2014-11-23 03:38:00,46.1,44.0,29.90,SSW,196,0.0,-999.0,92,-99.99,,,0.01,weatherlink.com 1.10,2014-11-23 08:38:00,
2014-11-23 03:53:00,45.8,44.0,29.90,SSW,195,0.0,-999.0,93,-99.99,,,0.03,weatherlink.com 1.10,2014-11-23 08:53:00,
2014-11-23 04:08:00,45.5,44.0,29.90,SSW,192,2.0,-999.0,94,-99.99,,,0.03,weatherlink.com 1.10,2014-11-23 09:08:00,
2014-11-23 04:23:00,45.2,44.0,29.89,South,191,0.0,-999.0,95,-99.99,,,0.03,weatherlink.com 1.10,2014-11-23 09:23:00,
2014-11-23 04:38:00,45.2,44.0,29.89,SSW,195,1.0,-999.0,95,-99.99,,,0.03,weatherlink.com 1.10,2014-11-23 09:38:00,
2014-11-23 04:53:00,45.0,44.0,29.89,SSW,196,0.0,-999.0,96,-99.99,,,0.03,weatherlink.com 1.10,2014-11-23 09:53:00,
2014-11-23 05:08:00,44.5,44.0,29.89,SE,144,0.0,-999.0,97,-99.99,,,0.04,weatherlink.com 1.10,2014-11-23 10:08:00,
2014-11-23 05:23:00,44.3,44.0,29.88,SSE,167,0.0,-999.0,97,-99.99,,,0.04,weatherlink.com 1.10,2014-11-23 10:23:00,
2014-11-23 05:38:00,44.0,43.0,29.88,SE,137,0.0,-999.0,97,-99.99,,,0.04,weatherlink.com 1.10,2014-11-23 10:38:00,
2014-11-23 05:53:00,43.9,43.0,29.88,SE,137,1.0,-999.0,98,-99.99,,,0.05,weatherlink.com 1.10,2014-11-23 10:53:00,
2014-11-23 06:08:00,43.9,43.0,29.88,SSE,148,4.0,-999.0,98,-99.99,,,0.05,weatherlink.com 1.10,2014-11-23 11:08:00,